sat.trackr.live / text

‹ back to catalog

QIANFAN-65

NORAD 62795 · 2025-016L

PAYLOAD ACTIVE UNKNOWN

§ Identity

Operator
Country
PRC
Launch date
2025-01-23
Launch site
TAISC
Launch vehicle
Mass (kg)
RCS (m²)

External: N2YO · Heavens-Above · Gunter

§ Orbital elements

Epoch: 2026-05-25T02:44:37.226400Z

Period
106.59 min
Inclination
88.9717°
Eccentricity
0.0011894
Mean motion
13.51009061 rev/d
Perigee alt
1,059.7 km
Apogee alt
1,077.4 km
Semi-major
7,446.7 km
B*
1.5796e-4
RAAN
86.0873°
Arg perigee
226.1309°
Mean anomaly
133.8860°
Rev number
6,930

§ Raw data

QIANFAN-651 62795U 25016L   26145.11431975  .00000114  00000+0  15796-3 0  99982 62795  88.9717  86.0873 0011894 226.1309 133.8860 13.51009061 69302

JSON: /api/v1/satellites/62795 · /tle

For live sub-satellite position, see the globe view (requires WebGL).

§ Visibility from observer

Set your observer location to see the next 7 days of passes ≥ 10°. The values pass through the URL so the page stays shareable.

No JS? Fill the form by hand. The geolocation button needs JavaScript.